User: anonymous   Login
Location: Cadenet
(43.7345°N, 5.3750°E)
Time: 18:02:04
(UTC+00:00)
Language:

STARLINK-1099 - Orbit

View from above orbital plane
View from above orbital plane
View from above satellite
View from above satellite

Ground track
Ground track

The orbit data is extracted from the following two-line orbital elements,

1 44918C 20001E   20152.47443960  .00002637  00000-0  18064-3 0  1527
2 44918  52.9996  90.7595 0001502  96.0363 175.2190 15.05575146    13
Epoch (UTC): 31 May 2020 11:23:11
Eccentricity: 0.0001502
inclination: 52.9996°
perigee height: 549 km
apogee height: 551 km
right ascension of ascending node: 90.7595°
argument of perigee: 96.0363°
revolutions per day: 15.05575146
mean anomaly at epoch: 175.2190°
orbit number at epoch: 1

The dashed part of the orbit path shows where the satellite is in the earth's shadow,  

DLR